Location: Unspecified
(0.0000°N, 0.0000°E)
Time: 06:32:07
(UTC+00:00)

deb Explorer IX - Pass Details

Date: 24 November 2019
Orbit: 546 x 1104 km, 38.8° (Epoch: 11 December)

Event Time Altitude Azimuth Distance (km) Brightness Sun altitude
Rises 16:42:26 0° 190° (S) 3,464 ? 15.0°
Reaches altitude 10° 16:47:30 10° 154° (SSE) 2,683 ? 13.8°
Maximum altitude 16:49:01 11° 140° (SE) 2,665 ? 13.5°
Drops below altitude 10° 16:50:34 10° 127° (SE) 2,765 ? 13.1°
Sets 16:56:07 0° 93° (E) 3,833 ? 11.8°
